Location: Haliburton Scout Reserve
(45.0900°N, 78.3200°W)
Time: 17:38:11
(UTC-04:00)

Courier 1B Rocket - Pass Details

Date: 14 February 2023
Orbit: 920 x 1202 km, 28.2° (Epoch: 22 March)

Event Time Altitude Azimuth Distance (km) Brightness Sun altitude
Rises 16:01:01 0° 248° (WSW) 3,782 9.7 14.6°
Reaches altitude 10° 16:05:31 10° 222° (SW) 2,760 9.5 14.0°
Maximum altitude 16:08:17 13° 197° (SSW) 2,516 8.2 13.6°
Drops below altitude 10° 16:10:59 10° 172° (S) 2,685 7.7 13.2°
Sets 16:15:14 0° 145° (SE) 3,583 8.0 12.6°
